Hourly Data Report for October 14, 2015

All times are specified in Local Standard Time (LST). Add 1 hour to adjust for Daylight Saving Time where and when it is observed.

QIKIQTARJUAQ A
NUNAVUT

67°32'48.000" N
64°01'54.000" W
5.50 m
2400577
YVM

Download Data

Hourly Data (October 2015)
Hourly Data Report for October 14, 2015
Temp Definition
°C
Dew Point Temp Definition
°C
Rel Hum Definition
%
Wind Dir Definition
10's deg

Wind Spd Definition
km/h
Visibility Definition
km
Stn Press Definition
kPa
Hmdx Definition


Wind Chill Definition


Weather Definition


TIME
00:00 Legend Double Dagger -5.3 -7.0 88 14 11 16.1 99.49   -10 LegendNANA
01:00 Legend Double Dagger -4.8 -6.2 90 15 9 16.1 99.46   -9 LegendNANA
02:00 Legend Double Dagger -4.9 -6.5 89 21 8 16.1 99.46   -8 LegendNANA
03:00 Legend Double Dagger -3.7 -7.1 77   0 16.1 99.42     LegendNANA
04:00 Legend Double Dagger -3.2 -7.6 72 20 17 16.1 99.38   -9 LegendNANA
05:00 Legend Double Dagger -3.1 -7.8 70 15 8 16.1 99.36   -6 LegendNANA
06:00 Legend Double Dagger -3.0 -9.5 61 19 21 16.1 99.33   -9 LegendNANA
07:00 Legend Double Dagger -5.1 -10.6 65 22 15 16.1 99.32   -11 LegendNANA
08:00 Legend Double Dagger -6.4 -11.4 68 4 8 16.1 99.28   -10 LegendNANA
09:00 Legend Double Dagger -5.5 -9.1 76 12 8 16.1 99.25   -9 LegendNANA
10:00 Legend Double Dagger -5.5 -8.1 82 LegendMM 4 16.1 99.23   -7 LegendNANA
11:00 Legend Double Dagger -4.3 -6.2 87   0 16.1 99.22     LegendNANA
12:00 Legend Double Dagger -1.9 -4.4 83 14 4 16.1 99.21   -3 LegendNANA
13:00 Legend Double Dagger -2.7 -5.5 81 14 4 16.1 99.20   -4 LegendNANA
14:00 Legend Double Dagger -2.7 -4.7 86 20 8 16.1 99.17   -6 LegendNANA
15:00 Legend Double Dagger -5.1 -7.2 85 18 8 16.1 99.16   -9 LegendNANA
16:00 Legend Double Dagger -5.0 -7.9 80 19 8 16.1 99.16   -9 LegendNANA
17:00 Legend Double Dagger -4.7 -7.8 79 18 5 16.1 99.13   -7 LegendNANA
18:00 Legend Double Dagger -4.9 -9.0 73 18 13 16.1 99.10   -10 LegendNANA
19:00 Legend Double Dagger -4.8 -10.9 63 18 15 16.1 99.07   -10 LegendNANA
20:00 Legend Double Dagger -4.4 -11.4 58 15 5 16.1 99.05   -7 LegendNANA
21:00 Legend Double Dagger -7.5 -15.3 54 11 8 16.1 99.01   -12 LegendNANA
22:00 Legend Double Dagger -5.2 -15.7 44 LegendMM 4 16.1 99.00   -7 LegendNANA
23:00 Legend Double Dagger -6.2 -15.4 49 9 5 16.1 98.96   -9 LegendNANA

Notes on Data Quality.

Legend

  • E = Estimated
  • M = Missing
  • NA = Not Available
  • ‡ = Partner data that is not subject to review by the National Climate Archives
Date modified: